Regional Weather Roundup
Issued by NWS

Home | Current Version | Previous Version | Text Only | Print | Product List | Glossary On
Versions: 1 2 3 4 5 6 7 8 9 10 11 12 13 14 15 16 17 18 19 20 21 22 23 24 25 26 27 28 29 30 31 32 33 34 35 36 37 38 39 40 41 42 43 44 45 46 47 48 49 50
785
ASUS43 KMPX 231101
RWRMN
WEATHER ROUNDUP FOR MINNESOTA
NATIONAL WEATHER SERVICE TWIN CITIES/CHANHASSEN MN
500 AM CST FRI FEB 23 2018


NOTE: "FAIR" INDICATES FEW OR NO CLOUDS BELOW 12,000 FEET WITH NO
SIGNIFICANT WEATHER AND/OR OBSTRUCTIONS TO VISIBILITY. N/A MEANS
CURRENT SKY AND/OR WEATHER CONDITIONS ARE NOT AVAILABLE.

MNZ060>063-068>070-231200-
   Twin Cities Metro

CITY           SKY/WX    TMP DP  RH WIND       PRES   REMARKS
TWIN CITIES    CLOUDY    27  27 100 CALM      30.05R FOG
ST PAUL        CLOUDY    26  26 100 CALM      30.06S FOG
CRYSTAL        CLOUDY    26  24  92 CALM      30.04S FOG
BLAINE         CLOUDY    27  27 100 CALM      30.04S
LAKEVILLE      CLOUDY    25  25 100 CALM      30.04S
EDEN PRAIRIE   CLOUDY    27  24  89 CALM      30.04S FOG
SOUTH ST PAUL  CLOUDY    28  27  98 CALM      30.05S FOG
LAKE ELMO      LGT SNOW  28  27  93 CALM      30.05S
$$
MNZ001>005-007-008-013>017-022>024-027-028-231200-
   Northwest Minnesota

CITY           SKY/WX    TMP DP  RH WIND       PRES   REMARKS
BEMIDJI        LGT SNOW  19  18  93 N5        30.06F VSB 3/4 WCI  12
HALLOCK        FAIR       9   5  85 NW7       30.14S WCI  -3
ROSEAU         CLOUDY    14   9  79 CALM      30.11S
WARROAD        FAIR      14  10  85 CALM      30.11F
THIEF RVR FALL LGT SNOW  16  14  92 CALM      30.12S FOG
CROOKSTON      LGT SNOW  18  16  93 NW5       30.14S WCI  11
FOSSTON        LGT SNOW  18  16  93 N5        30.09S WCI  11
DETROIT LAKES  LGT SNOW  21  19  93 NW3       30.08S
MOORHEAD       MIX PCPN  18  16  93 N10       30.13S WCI   6
PARK RAPIDS    LGT SNOW  20  17  88 CALM      30.04F VSB 1
MAHNOMEN       LGT SNOW  20  18  93 N7        30.09S WCI  11
$$
MNZ006-009>011-018-025>026-231200-
   North Central Minnesota

CITY           SKY/WX    TMP DP  RH WIND       PRES   REMARKS
BAUDETTE       LGT SNOW  16  13  88 CALM      30.08F FOG
FLAG ISLAND    CLOUDY    10   7  85 CALM      30.10F
INTL FALLS     LGT SNOW  20  18  92 CALM      30.08F FOG
WASKISH        LGT RAIN  19  18  93 CALM      30.09S
BIG FORK       LGT SNOW  21  19  93 CALM      30.06S VSB 3/4
LONGVILLE      LGT SNOW  19  19 100 CALM      30.05F
GRAND RAPIDS   LGT SNOW  20  18  92 N3        30.06F FOG
CRANE LAKE     LGT SNOW  19  18  93 CALM      30.10S
ORR            LGT SNOW  19  16  86 CALM      30.04S
COOK           SNOW      19  18  93 CALM      30.06F VSB 1/2
WALKER         LGT SNOW  19  17  93 CALM      30.05F VSB 1
$$
MNZ012-019>021-037-231200-
   Northeast Minnesota

CITY           SKY/WX    TMP DP  RH WIND       PRES   REMARKS
DULUTH         LGT SNOW  25  22  88 E10       30.02F VSB 1   WCI  15
ELY            LGT SNOW  18  18 100 CALM      30.04S
HIBBING        LGT SNOW  20  18  92 CALM      30.03F FOG
DULUTH HARBOR  LGT SNOW  27  27 100 E9        30.08S VSB 1   WCI  17
TWO HARBORS    MIX PCPN  27  21  80 NE6       30.03F VSB 1   WCI  20
SILVER BAY     MIX PCPN  25  25 100 CALM      30.05S
GRAND MARAIS     N/A     27  24  89 NE10      30.10F WCI  17
G MARAIS ARPRT LGT SNOW  19  16  86 NE3       30.03F
$$
MNZ029>031-032-039>041-046>048-054>057-064-231200-
   West Central Minnesota

CITY           SKY/WX    TMP DP  RH WIND       PRES   REMARKS
FERGUS FALLS   LGT SNOW  19  18  93 CALM      30.09S
WHEATON        CLOUDY    19  18  93 W8        30.13S WCI   9
MORRIS         CLOUDY    19  19 100 NW5       30.08R WCI  13
ALEXANDRIA     LGT SNOW  20  18  92 N3        30.05S FOG
ELBOW LAKE     LGT SNOW  19  18  96 N3        30.09R
WADENA         LGT SNOW  19  18  93 CALM      30.05S
GLENWOOD       FLURRIES  21  19  93 NW5       30.05F WCI  15
APPLETON       MOCLDY    16  12  86 W7        30.10R WCI   6
BENSON         CLOUDY    21  19  93 N3        30.09S
ORTONVILLE     CLEAR     18  16  93 NW8       30.10R FOG     WCI   7
MADISON        CLOUDY    14  10  85 W9        30.11R FOG     WCI   2
WILLMAR        CLOUDY    23  21  93 W8        30.08S WCI  14
$$
MNZ033>034-036-042>043-049>051-058-059-231200-
   Central Minnesota

CITY           SKY/WX    TMP DP  RH WIND       PRES   REMARKS
ST CLOUD       CLOUDY    22  22 100 W3        30.05S
SAUK CENTRE    CLOUDY    21  19  95 NW3       30.05F
PAYNESVILLE    CLOUDY    22  22  99 CALM      30.05F
AITKIN         LGT SNOW  19  18  93 CALM      30.03F VSB 1
PINE RIVER     LGT SNOW  19  18  93 CALM      30.08S VSB 1
BRAINERD       LGT SNOW  21  17  84 N5        30.05S FOG     WCI  15
STAPLES        LGT SNOW  19  18  93 CALM      30.05S
LONG PRAIRIE   LGT SNOW  21  19  93 W3        30.05S
LITTLE FALLS   LGT SNOW  23  19  86 CALM      30.06S
LITCHFIELD     MOCLDY    25  25 100 CALM      30.06R FOG
BUFFALO        CLOUDY    25  23  93 CALM      30.06S FOG
MAPLE LAKE     FAIR      25  24  96 CALM      30.06S
HUTCHINSON     CLOUDY    25  24  96 SW3       30.06S
$$
MNZ037-044-045-052-053-231200-
   East Central Minnesota

CITY           SKY/WX    TMP DP  RH WIND       PRES   REMARKS
PRINCETON      CLOUDY    25  23  93 CALM      30.05S
CAMBRIDGE      LGT SNOW  27  21  80 CALM      30.05S
RUSH CITY      MIX PCPN  25  23  93 CALM      30.05S
MOOSE LAKE     LGT SNOW  23  21  93 CALM      30.03S
HINCKLEY       LGT SNOW  27  27 100 CALM      30.04F
CLOQUET        LGT SNOW  23  21  93 E3        30.03F
MCGREGOR       CLOUDY    23  21  93 CALM      30.04S
$$
MNZ071>073-080-081-089-090-097-098-231200-
   Southwest Minnesota

CITY           SKY/WX    TMP DP  RH WIND       PRES   REMARKS
MONTEVIDEO     PTCLDY    19  19 100 NW5       30.09S FOG     WCI  13
GRANITE FALLS  MOCLDY    20  19  95 W9        30.10S FOG     WCI   9
CANBY          CLOUDY    17  15  95 NW6       30.12R WCI   8
MARSHALL       CLEAR     13  11  92 W13       30.10R WCI  -2
REDWOOD FALLS  PTCLDY    23  20  88 W13       30.07S WCI  11
OLIVIA         PTCLDY    23  21  93 W10       30.06S WCI  12
PIPESTONE      CLOUDY    18  18 100 NW10      30.09R WCI   6
WORTHINGTON    MOCLDY    19  17  92 W17       30.10R WCI   4
JACKSON        CLOUDY    23  21  93 W16       30.08S WCI  10
TRACY          CLEAR     20  18  91 W9        30.09R WCI   9
SLAYTON        CLOUDY    19  17  95 W13       30.09R FOG     WCI   5
$$
MNZ065>067-074>077-082>085-091>093-231200-
   South Central Minnesota

CITY           SKY/WX    TMP DP  RH WIND       PRES   REMARKS
MANKATO        CLOUDY    27  25  92 W15       30.07S WCI  15
NEW ULM        CLOUDY    25  21  86 W14       30.07S WCI  13
ST JAMES       CLOUDY    25  21  86 W14       30.09F WCI  13
FAIRMONT       CLOUDY    25  22  88 W13       30.08F WCI  14
GLENCOE        CLOUDY    26  26 100 CALM      30.06S
FARIBAULT      CLOUDY    30  27  86 SW13      30.05S WCI  20
OWATONNA       CLOUDY    28  28 100 W15       30.05R WCI  17
WASECA         CLOUDY    30  27  86 W14       30.08R WCI  20
ALBERT LEA     CLOUDY    30  28  93 W5        30.06R WCI  25
$$
MNZ078>079-086>088-094>096-231200-
   Southeast Minnesota

CITY           SKY/WX    TMP DP  RH WIND       PRES   REMARKS
ROCHESTER      LGT SNOW  31  31 100 SW13      30.02F FOG     WCI  21
RED WING       MIX PCPN  28  27  93 CALM      30.04F
STANTON        CLOUDY    30  28  93 CALM      30.03S FOG
DODGE CENTER   CLOUDY    30  28  93 W12       30.02F WCI  21
WINONA         CLOUDY    32  30  93 CALM      30.04R FOG
AUSTIN         CLOUDY    30  28  93 W10       30.05R WCI  21
PRESTON        CLOUDY    32  31  96 SW7       30.04R FOG     WCI  25
$$
ABBREVIATIONS USED IN REMARKS
   TC - TEMPERATURES IN CELSIUS
  WCI - WIND CHILL INDEX
   HX - HEAT INDEX
  VSB - VISIBILITY
$$




USA.gov is the U.S. government's official web portal to all federal, state and local government web resources and services.